User: anonymous   Login
Location: Melbourne
(37.8170°S, 144.9670°E)
Time: 06:05:55
(UTC+10:00)
Language:

Explorer 11/Cluster Stage 4 - Orbit

View from above orbital plane
View from above orbital plane
View from above satellite
View from above satellite

Ground track
Ground track

The orbit data is extracted from the following two-line orbital elements,

1 00107U 61013A   17265.83310956  .00000360  00000-0  28081-4 0  9997
2 00107  28.7903  59.1543 0549034 327.8356  28.9814 14.08396128824845
Epoch (UTC): 22 September 2017 19:59:40
Eccentricity: 0.0549034
inclination: 28.7903°
perigee height: 467 km
apogee height: 1262 km
right ascension of ascending node: 59.1543°
argument of perigee: 327.8356°
revolutions per day: 14.08396128
mean anomaly at epoch: 28.9814°
orbit number at epoch: 82484

The dashed part of the orbit path shows where the satellite is in the earth's shadow,  

DLR